Location: Brno
(49.2000°N, 16.6330°E)
Time: 11:09:58
(UTC+02:00)

CARTOSAT-1 - Visible Passes

Search period start: 02 September 2014 00:00
Search period end: 12 September 2014 00:00
Orbit: 616 x 621 km, 97.8° (Epoch: 01 September)

Date Brightness Start Highest point End Pass type
(mag) Time Alt. Az. Time Alt. Az. Time Alt. Az.
02 Sep 4.0 22:15:17 47° NE 22:15:17 47° NE 22:19:07 10° N visible
02 Sep 5.9 23:52:25 18° WNW 23:52:25 18° WNW 23:54:30 10° NW visible
03 Sep 5.8 20:55:44 10° ENE 20:56:27 10° NE 20:57:10 10° NE visible
03 Sep 3.9 22:32:25 59° NNE 22:32:25 59° NNE 22:36:03 10° N visible
04 Sep 6.3 00:09:33 13° WNW 00:09:33 13° WNW 00:10:35 10° WNW visible
04 Sep 5.5 21:12:27 14° ENE 21:13:06 14° ENE 21:15:25 10° NNE visible
04 Sep 4.2 22:49:35 53° NNW 22:49:35 53° NNW 22:52:57 10° NNW visible
05 Sep 5.2 21:29:39 20° ENE 21:29:49 20° ENE 21:32:55 10° NNE visible
05 Sep 4.8 23:06:48 39° NW 23:06:48 39° NW 23:09:48 10° NNW visible
06 Sep 4.8 21:46:54 27° ENE 21:46:54 27° ENE 21:50:15 10° N visible
06 Sep 5.4 23:24:03 28° WNW 23:24:03 28° WNW 23:26:36 10° NNW visible
07 Sep 4.5 22:04:12 35° NE 22:04:12 35° NE 22:07:29 10° N visible
07 Sep 5.8 23:41:21 20° WNW 23:41:21 20° WNW 23:43:18 10° NW visible
08 Sep 4.4 22:21:32 42° NNE 22:21:32 42° NNE 22:24:40 10° N visible
08 Sep 6.2 23:58:41 14° WNW 23:58:41 14° WNW 23:59:50 10° NW visible
09 Sep 5.7 21:01:44 12° ENE 21:02:06 12° NE 21:03:36 10° NE visible
09 Sep 4.6 22:38:54 42° N 22:38:54 42° N 22:41:49 10° NNW visible
10 Sep 5.5 21:19:08 16° ENE 21:19:08 16° ENE 21:21:38 10° NNE visible
10 Sep 5.0 22:56:18 35° NNW 22:56:18 35° NNW 22:58:55 10° NNW visible
11 Sep 5.2 21:36:35 21° NE 21:36:35 21° NE 21:39:16 10° NNE visible
11 Sep 5.5 23:13:45 27° NW 23:13:45 27° NW 23:15:57 10° NNW visible
